DW1040 Weather Reports


Display with metric or nautical units.
time (UTC)temp
F
wind
direction
speed
MPH
gust
MPH
rain 1hr
in
rain 24hr
in
rain mn
in
humidity
%
barometer
mb
20200222193101 71 66 5.0 11.0 0.00 0.00 0.00 60 1022.8
20200222191629 71 348 4.0 10.0 0.00 0.00 0.00 61 1022.7
20200222190111 70 105 4.0 11.0 0.00 0.00 0.00 63 1023.0
20200222184712 71 15 5.0 14.0 0.00 0.00 0.00 63 1023.3
20200222183131 71 34 6.0 15.0 0.00 0.00 0.00 61 1023.4
20200222181554 71 34 4.0 13.0 0.00 0.00 0.00 61 1023.4
20200222180105 71 80 6.0 13.0 0.00 0.00 0.00 57 1023.7
20200222174649 71 39 4.0 11.0 0.00 0.00 0.00 60 1023.8
20200222173115 71 42 5.0 11.0 0.00 0.00 0.00 56 1023.9
20200222171631 71 57 7.0 18.0 0.00 0.00 0.00 58 1024.0
20200222170110 71 9 3.0 13.0 0.00 0.00 0.00 60 1024.1
20200222164539 70 37 4.0 15.0 0.00 0.00 0.00 59 1024.3
20200222163100 70 41 6.0 14.0 0.00 0.00 0.00 59 1024.3
20200222161545 69 31 4.0 13.0 0.00 0.00 0.00 61 1024.7
20200222160123 69 53 7.0 16.0 0.00 0.00 0.00 58 1024.6
20200222154632 69 67 5.0 18.0 0.00 0.00 0.00 60 1024.5
20200222153106 69 74 5.0 15.0 0.00 0.00 0.00 59 1024.4
20200222151541 68 10 6.0 16.0 0.00 0.00 0.00 58 1024.3
20200222150034 68 22 5.0 14.0 0.00 0.00 0.00 59 1024.2
20200222143051 67 150 7.0 17.0 0.00 0.00 0.00 58 1024.0
20200222141543 67 65 6.0 16.0 0.00 0.00 0.00 60 1023.8
20200222140043 67 54 4.0 16.0 0.00 0.00 0.00 63 1023.5
20200222134520 66 337 6.0 14.0 0.00 0.00 0.00 62 1023.3
20200222133015 66 38 5.0 17.0 0.00 0.00 0.00 65 1023.2
20200222131517 64 50 6.0 17.0 0.00 0.00 0.00 68 1022.9
20200222130006 63 299 4.0 12.0 0.00 0.00 0.00 76 1022.8
20200222124715 62 23 4.0 15.0 0.00 0.03 0.00 76 1022.6
20200222123201 61 9 5.0 16.0 0.00 0.03 0.00 77 1022.4
20200222121702 61 319 6.0 17.0 0.00 0.03 0.00 77 1022.3
20200222120102 61 72 5.0 14.0 0.00 0.03 0.00 78 1022.2
20200222114624 61 27 8.0 15.0 0.00 0.05 0.00 77 1022.1
20200222113141 61 49 5.0 18.0 0.00 0.05 0.00 75 1021.9
20200222111616 61 20 7.0 18.0 0.00 0.05 0.00 72 1021.8
20200222110212 61 19 8.0 17.0 0.00 0.05 0.00 73 1021.5
20200222104855 61 31 6.0 16.0 0.00 0.08 0.00 78 1021.2
20200222103128 60 46 6.0 18.0 0.00 0.08 0.00 78 1021.2
20200222101620 60 28 4.0 18.0 0.00 0.08 0.00 77 1021.0
20200222100058 60 40 7.0 16.0 0.00 0.08 0.00 77 1020.9
20200222094609 60 324 7.0 19.0 0.00 0.08 0.00 78 1020.6
20200222093213 60 57 6.0 24.0 0.00 0.08 0.00 79 1020.6
20200222091603 60 44 6.0 18.0 0.00 0.08 0.00 78 1020.6
20200222090102 60 11 8.0 24.0 0.00 0.08 0.00 79 1020.7
20200222084559 60 271 10.0 23.0 0.00 0.08 0.00 77 1020.8
20200222083100 59 252 7.0 16.0 0.00 0.08 0.00 78 1020.9
20200222081622 59 44 7.0 18.0 0.00 0.08 0.00 79 1021.0
20200222080048 59 348 7.0 25.0 0.00 0.08 0.00 80 1021.0
20200222074548 59 341 9.0 23.0 0.00 0.08 0.00 78 1021.2
20200222073047 59 310 6.0 22.0 0.00 0.08 0.00 78 1021.3
20200222071548 59 336 8.0 23.0 0.00 0.08 0.00 77 1021.5
20200222070026 59 325 11.0 21.0 0.00 0.08 0.00 76 1021.4
20200222064524 59 329 10.0 19.0 0.00 0.08 0.00 76 1021.5
20200222063037 59 283 9.0 21.0 0.00 0.08 0.00 76 1021.6
20200222061525 58 339 9.0 18.0 0.00 0.08 0.00 78 1021.8
20200222060023 58 9 8.0 19.0 0.00 0.08 0.00 77 1022.0
20200222054513 58 59 9.0 24.0 0.00 0.08 0.00 76 1022.2
20200222053013 59 20 6.0 21.0 0.00 0.08 0.00 77 1022.4
20200222051506 58 322 5.0 18.0 0.00 0.08 0.00 76 1022.4
20200222050209 58 360 6.0 18.0 0.00 0.08 0.00 76 1022.5
20200222050007 58 360 6.0 18.0 0.00 0.08 0.00 76 1022.4
20200222044720 58 15 12.0 25.0 0.00 0.08 0.08 75 1022.5
20200222043313 58 310 9.0 26.0 0.00 0.08 0.08 76 1022.9
20200222041752 58 329 9.0 25.0 0.00 0.08 0.08 77 1022.9
20200222040150 58 13 7.0 20.0 0.00 0.08 0.08 79 1022.7
20200222034626 57 55 10.0 23.0 0.00 0.08 0.08 79 1022.8
20200222033154 57 324 9.0 20.0 0.00 0.08 0.08 79 1022.9
20200222031636 57 265 6.0 27.0 0.00 0.08 0.08 80 1023.0
20200222030123 57 350 9.0 23.0 0.00 0.08 0.08 80 1022.9
20200222024641 57 336 10.0 27.0 0.00 0.08 0.08 80 1022.6
20200222023110 57 338 11.0 26.0 0.00 0.08 0.08 80 1022.6
20200222021615 57 317 9.0 21.0 0.00 0.08 0.08 80 1022.4
20200222020128 57 329 9.0 24.0 0.00 0.08 0.08 80 1022.4
20200222014619 57 9 10.0 25.0 0.00 0.08 0.08 80 1022.0
20200222013115 57 280 12.0 22.0 0.00 0.08 0.08 80 1022.1
20200222011615 57 325 9.0 24.0 0.00 0.08 0.08 81 1022.0
20200222010110 56 22 9.0 30.0 0.00 0.08 0.08 81 1021.8
20200222004621 56 330 9.0 31.0 0.00 0.08 0.08 81 1021.5
20200222003059 56 294 9.0 28.0 0.00 0.08 0.08 82 1021.5
20200222001607 56 347 11.0 23.0 0.00 0.08 0.08 82 1021.2
20200222000043 56 38 10.0 23.0 0.00 0.08 0.08 84 1021.2
20200221234527 56 65 10.0 23.0 0.00 0.08 0.08 84 1021.0
20200221233103 56 302 10.0 23.0 0.00 0.08 0.08 85 1020.8
20200221231524 56 346 11.0 25.0 0.00 0.08 0.08 86 1020.6
20200221230027 57 315 9.0 22.0 0.00 0.08 0.08 85 1020.7
20200221224517 57 40 7.0 24.0 0.00 0.08 0.08 85 1020.5
20200221223027 57 60 8.0 21.0 0.00 0.08 0.08 84 1020.3
20200221221527 57 337 12.0 25.0 0.00 0.08 0.08 85 1020.1
20200221220013 57 65 11.0 24.0 0.00 0.08 0.08 85 1020.1
20200221214532 58 16 10.0 23.0 0.00 0.08 0.08 84 1019.7
20200221213015 58 87 11.0 21.0 0.00 0.08 0.08 84 1019.8
20200221211808 58 306 11.0 26.0 0.00 0.08 0.08 83 1019.6
20200221210239 59 29 11.0 25.0 0.00 0.08 0.08 84 1019.4
20200221204559 59 53 10.0 23.0 0.00 0.08 0.08 83 1019.4
20200221203134 59 15 7.0 26.0 0.00 0.08 0.08 84 1019.3
20200221201639 60 319 12.0 22.0 0.00 0.08 0.08 83 1019.3
20200221200107 60 341 7.0 23.0 0.00 0.08 0.08 85 1019.1